Hourly Data Report for November 21, 2012

BAGOTVILLE A
QUEBEC

48°20'00.000" N
71°00'00.000" W
159.10 m
7060400
71727
YBG

Download Data

Hourly Data (November 2012)
Hourly Data Report for November 21, 2012
TIME
LST
Temp Definition
°C
Dew Point Definition
°C
Rel Hum Definition
%
Precip. Amount Definition
mm

Wind Dir Definition
10's deg

Wind Spd Definition
km/h
Visibility Definition
km
Stn Press Definition
kPa
Hmdx Definition


Wind Chill Definition


Weather Definition


00:00 0.4 -2.9 78   9 9 24.1 100.30     Mostly Cloudy
01:00 -0.4 -2.3 87   14 4 24.1 100.31   -2 Mostly Cloudy
02:00 0.0 -2.6 83   11 6 24.1 100.29   -2 Mostly Cloudy
03:00 -0.2 -2.8 83   15 4 24.1 100.29   -1 Mostly Cloudy
04:00 0.4 -2.9 78   11 7 24.1 100.28     Mostly Cloudy
05:00 0.9 -1.7 83   6 7 24.1 100.32     Mostly Cloudy
06:00 0.4 -1.6 86   28 4 24.1 100.38     Mostly Cloudy
07:00 0.1 -1.7 88     0 40.2 100.40     Cloudy
08:00 1.5 -1.3 82   10 7 40.2 100.36     Mostly Cloudy
09:00 2.1 -1.1 79   9 9 40.2 100.36     Cloudy
10:00 2.7 -1.8 72   11 11 40.2 100.31     Mostly Cloudy
11:00 3.3 -2.2 67   12 13 40.2 100.26     Mostly Cloudy
12:00 3.4 -1.5 70   11 7 40.2 100.21     Mostly Cloudy
13:00 4.0 -1.7 66   12 7 40.2 100.16     Mostly Cloudy
14:00 5.9 -1.5 59   10 7 40.2 100.11     Mostly Cloudy
15:00 5.3 -1.7 61   12 11 40.2 100.16     Mostly Cloudy
16:00 3.2 -1.2 73   11 6 40.2 100.08     Mostly Cloudy
17:00 3.4 -1.3 71   10 7 24.1 100.09     Mainly Clear
18:00 1.4 -1.4 82   14 4 24.1 100.11     Mainly Clear
19:00 0.8 -2.7 77   15 4 24.1 100.10     Mainly Clear
20:00 1.2 -2.2 78   12 7 24.1 100.09     Mostly Cloudy
21:00 1.0 -1.9 81   11 11 24.1 100.05     Mostly Cloudy
22:00 0.8 -1.6 84   10 15 24.1 99.99     Cloudy
23:00 1.0 -1.9 81   10 9 24.1 99.97     Mostly Cloudy

Notes on Data Quality.

Legend

  • E = Estimated
  • M = Missing
  • NA = Not Available*
  • [empty] = Indicates an unobserved value
Date modified: